Hourly Data Report for June 09, 2020

OTTAWA INTL A
ONTARIO
Current Station Operator: NAVCAN

45°19'00.000" N
75°40'00.000" W
114.90 m
6106001
71628
YOW

Download Data

Hourly Data (June 2020)
Hourly Data Report for June 9, 2020
TIME Temp Definition
°C
Dew Point Definition
°C
Rel Hum Definition
%
Wind Dir Definition
10's deg

Wind Spd Definition
km/h
Visibility Definition
km
Stn Press Definition
kPa
Hmdx Definition


Wind Chill Definition


Weather Definition


00:00 16.3 9.5 63 17 9 24.1 99.89     LegendNANA
01:00 16.3 9.4 64 21 7 24.1 99.90     Cloudy
02:00 15.9 9.9 67 36 3 24.1 99.87     LegendNANA
03:00 15.8 10.1 69 7 10 24.1 99.89     LegendNANA
04:00 14.2 10.6 79 5 14 16.1 99.92     Rain Showers
05:00 13.6 11.2 85 8 5 24.1 99.89     LegendNANA
06:00 12.8 11.5 92 6 12 16.1 99.93     Rain Showers
07:00 13.5 12.4 93 14 9 24.1 99.88     Cloudy
08:00 14.7 12.8 88 10 5 24.1 99.93     LegendNANA
09:00 15.6 14.3 91 4 10 24.1 99.92     LegendNANA
10:00 17.7 14.3 81 2 10 24.1 99.94     Mostly Cloudy
11:00 17.9 13.2 74 5 8 24.1 99.95     LegendNANA
12:00 18.8 13.2 69 5 10 24.1 100.00     LegendNANA
13:00 19.7 13.2 66 4 4 24.1 100.02     Mostly Cloudy
14:00 20.6 13.7 64 5 13 24.1 99.98     LegendNANA
15:00 20.5 13.0 61 3 5 24.1 99.98     LegendNANA
16:00 21.0 12.5 58 8 6 24.1 99.97     Mostly Cloudy
17:00 21.3 13.4 60 6 10 24.1 99.96     LegendNANA
18:00 20.8 13.6 63 6 16 24.1 99.98     LegendNANA
19:00 19.7 13.0 65 7 18 24.1 100.00     Mostly Cloudy
20:00 18.0 12.9 72 8 10 24.1 100.00     LegendNANA
21:00 16.3 12.6 79 9 10 24.1 100.08     LegendNANA
22:00 15.9 12.5 80 11 9 24.1 100.04     Mostly Cloudy
23:00 15.7 12.1 79 9 9 24.1 100.06     LegendNANA

Notes on Data Quality.

Legend

  • E = Estimated
  • M = Missing
  • NA = Not Available*
  • [empty] = Indicates an unobserved value
Date modified: